CZ-6 R/B, 44784

Orbit data source: Space-Track

CZ-6 R/B, 44784 is space debris in LEO originally from a launch on Wed, 13 Nov 2019 UTC launched from the Taiyaun Space Center, China (TSC). Debris objects in space refer to the collection of defunct objects orbiting the Earth. Examples of debris include non-operational satellites, rocket bodies, and fragments generated from explosions, collisions, or faulty payload assembly.

Loading next visibility...
CZ-6 R/B details
Identifier
44784, 2019-076F
Orbit
LEO
Last TLE update5 hours ago
Origin
Flag of CNCNSA (CN / PRC)
ManufacturerSAST
MissionSpacecraft
Bus & MotorCZ-6 STAGE 3, YF-85 X 4
Mass~1,000 kg wet, ~1,000 kg dry
Launch date (UTC)
2019-11-13 (5 years ago)
Launch vehicleUnknown
Launch site
Taiyaun Space Center, China (TSC)
Object type
Payload
Rocket body
Debris
Shape & HBRCyl, 4 m
Radar Cross Section9.057 m², Large (>1 m²)

Expand to show TLE details & history

TLE from 5 hours ago
0 CZ-6 R/B
1 44784U 19076F   24337.12210015  .00000657  00000-0  36971-3 0  9998
2 44784  45.0089 310.8816 0089102 324.0980  35.3895 14.17880007261916
Epoch: 2024-12-02T02:55Z
Definitive object data (Epoch: 2024-12-02T02:55:49.452Z)
Latitude-0.00004°
Longitude-164.52499°
Altitude780.353 km
Speed7.492 km/s
True Right ascension20h 43m 31s
True Declination0° 00' 00"
Sunlit
Object was in daylight at TLE epoch
Visualization TLE readout
Latitude37.49647°
Longitude-115.82397°
Altitude838.589 km
Speed7.437 km/s
Apparent Right ascension21h 18m 12s
Apparent Declination2° 15' 46"
Sunlit
Object is in full shadow
Visualization observer readout
Local Sidereal Time06:02:56
Azimuth301.034° NW
Elevation-28.64°
Doppler factor1
Orbital elements
Apogee altitude898.324 km
Perigee altitude769.8 km
Semi-major axis7,212.199 km
Eccentricity0.0089102
Inclination45.0089°
RAAN310.8816°
Arg. of periapsis324.098°
True anomaly35.98622°
Mean anomaly35.3895°
Eccentric anomaly35.68732°
Mean motion3.54358 °/min
BSTAR0.00036971
Orbital period101.59 mins
Loading maneuver chart data...
Loading historical data...
Loading historical data...
Loading historical data...
Loading historical data...
Loading historical data...
Loading historical data...
Loading historical data...

CZ-6 R/B Visibility forecast

Observer location: undefined°, undefined

Span
Click to sort rows by Start time (UTC) header in descending order
Start Az.
Max El. time (UTC)
Max El. Az.
Max El.
End time (UTC)
End Az.
10 mins2024-12-02 08:31:43.850Z281.635° WNW2024-12-02 08:36:43.850Z220.811° SW30.884°2024-12-02 08:41:43.850Z156.055° SSE
9 mins2024-12-03 01:05:43.850Z206.383° SW2024-12-03 01:09:43.850Z139.342° SSE33.799°2024-12-03 01:14:43.850Z75.453° E
10 mins2024-12-03 02:51:43.850Z259.238° W2024-12-03 02:55:43.850Z306.017° NW42.688°2024-12-03 03:01:43.850Z65.919° ENE
9 mins2024-12-03 04:39:43.850Z292.675° NW2024-12-03 04:43:43.850Z8.477° NNE38.262°2024-12-03 04:48:43.850Z76.557° E
10 mins2024-12-03 06:26:43.850Z295.381° NW2024-12-03 06:30:43.850Z1.995° NNE44.602°2024-12-03 06:36:43.850Z109.439° ESE
|